Location: Asheville, NC
(35.6000°N, 82.5500°W)
Time: 15:44:02
(UTC-04:00)

ISS - Pass Details

Date: 09 May 2026
Orbit: 414 x 424 km, 51.6° (Epoch: 15 May)

Event Time Altitude Azimuth Distance (km) Brightness Sun altitude
Exits shadow 05:10:01 - 304° (NW) 1,786 -0.8 -15.2°
Reaches altitude 10° 05:10:45 10° 302° (WNW) 1,492 -1.2 -15.0°
Maximum altitude 05:14:01 50° 226° (SW) 534 -3.7 -14.5°
Drops below altitude 10° 05:17:16 10° 149° (SSE) 1,489 -1.0 -13.9°
Sets 05:19:23 0° 144° (SE) 2,351 0.1 -13.6°
